Notices

What's New in latest Release from April 7th, 2021:

- Updated Glossary, including Speed of Maximum Gust, and Total Hourly Precipitation

- Updated national and regional climate services offices contacts and prices information

- Addition of station inventory lists for 1981-2010, 1971-2000, and 1961-1990 Normals.

If you haven't already, please take our survey and provide feedback about our website: https://eccc.sondage-survey.ca/f/LanguageSelection.aspx?s=442ca660-fcf1-47c0-95a9-59707d6fd709

Hourly Data Report for August 25, 2015

IQALUIT CLIMATE
NUNAVUT

63°44'50.000" N
68°32'40.000" W
33.50 m
2402592
71321
XFB

Download Data

Hourly Data (August 2015)
Hourly Data Report for August 25, 2015
TIME
LST
Temp Definition
°C
Dew Point Definition
°C
Rel Hum Definition
%
Precip. Amount Definition
mm

Wind Dir Definition
10's deg

Wind Spd Definition
km/h
Visibility Definition
km
Stn Press Definition
kPa
Hmdx Definition


Wind Chill Definition


Weather Definition


00:00 2.1 0.9 92 0.0 14 9   102.26     LegendNANA
01:00 2.2 0.6 89 0.0 14 13   102.22     LegendNANA
02:00 2.0 0.7 91 0.0 16 11   102.20     LegendNANA
03:00 1.9 0.8 92 0.0 15 8   102.19     LegendNANA
04:00 1.9 0.7 92 0.0 16 10   102.16     LegendNANA
05:00 2.2 1.0 92 0.0 14 13   102.15     LegendNANA
06:00 2.1 0.4 88 0.0 15 12   102.14     LegendNANA
07:00 2.3 0.2 86 0.0 16 10   102.16     LegendNANA
08:00 2.0 0.3 89 0.0 15 14   102.14     LegendNANA
09:00 3.3 1.0 85 0.0 16 13   102.17     LegendNANA
10:00 2.8 0.5 85 0.0 18 13   102.13     LegendNANA
11:00 2.5 0.6 87 0.0 16 16   102.09     LegendNANA
12:00 2.7 1.2 90 0.0 14 15   102.11     LegendNANA
13:00 2.9 1.3 89 0.0 17 17   102.07     LegendNANA
14:00 3.7 1.6 86 0.0 17 17   102.02     LegendNANA
15:00 2.9 0.8 86 0.0 16 19   102.01     LegendNANA
16:00 2.8 0.9 87 0.0 16 17   102.00     LegendNANA
17:00 3.0 0.8 86 0.0 15 24   102.03     LegendNANA
18:00 2.6 0.9 89 0.0 15 17   102.02     LegendNANA
19:00 2.0 1.1 94 0.3 15 16   102.02     LegendNANA
20:00 2.0 1.0 93 0.5 17 15   101.99     LegendNANA
21:00 1.7 0.9 94 0.6 16 16   101.97     LegendNANA
22:00 2.2 1.5 95 0.9 14 27   101.92     LegendNANA
23:00 2.1 1.4 95 1.2 15 21   101.90     LegendNANA

Notes on Data Quality.

Legend

  • E = Estimated
  • M = Missing
  • NA = Not Available*
  • [empty] = Indicates an unobserved value
Date modified: